Wind_Speed
34 35 37 36 35 34 33 33 32 32 31 30 29 26 26 27 29 28 28 28 29 29 30 32 33 34 35 35 36 39 38 36 40 47 39 43 47 34 58 61 44 71 69
36 39 39 36 36 35 34 35 34 33 33 32 31 29 30 32 33 32 33 31 31 29 30 29 29 30 31 34 37 35 34 35 37 39 42 37 41 30 35 51 58 63 69
39 43 41 38 38 37 36 36 35 35 33 34 33 35 37 34 35 35 36 33 29 28 28 25 24 26 29 32 34 36 32 33 35 41 43 36 34 27 27 35 55 47 63
44 45 40 39 39 39 38 36 36 36 34 34 33 35 34 34 34 36 36 30 27 25 25 24 24 26 29 32 33 32 32 31 33 32 31 27 28 29 26 27 43 41 60
46 43 42 43 43 41 40 39 38 37 37 36 34 33 37 38 37 36 33 29 27 26 24 25 26 26 28 32 33 30 29 28 28 31 24 25 25 17 23 22 33 38 60
44 42 41 41 42 40 39 38 39 39 40 39 36 35 36 35 36 34 31 29 28 27 25 23 24 24 26 28 29 30 28 28 25 25 23 18 13 16 19 22 28 45 52
42 44 43 39 38 36 37 37 37 39 42 41 38 35 35 35 34 32 31 29 27 26 25 23 22 23 23 24 26 27 26 27 26 23 26 21 18 15 19 20 28 42 41
41 43 43 41 39 38 38 37 37 38 39 41 39 36 34 34 33 32 30 29 27 25 25 24 22 21 21 23 23 22 21 26 25 24 23 19 25 11 13 12 22 29 36
49 50 50 47 46 44 45 39 41 44 40 39 36 36 34 33 33 31 30 28 26 25 25 24 22 21 20 21 22 22 19 21 23 21 20 20 15 25 19 12 16 25 29
51 53 54 54 49 51 48 51 48 44 45 43 38 34 34 33 32 32 31 29 25 22 21 21 21 18 18 20 20 22 22 18 19 21 22 18 17 16 28 11 13 15 25
48 50 47 48 47 46 50 48 46 42 46 49 43 32 31 31 32 32 31 30 27 22 20 19 20 20 19 20 21 21 21 21 19 20 17 17 16 16 17 26 13 15 18
63 61 59 59 47 47 46 45 47 48 52 44 38 32 31 29 29 31 31 30 28 24 20 19 19 20 20 21 21 21 20 20 21 20 21 16 16 16 15 16 24 5 16
48 50 52 57 58 51 45 46 44 40 49 38 29 26 26 26 28 29 29 29 29 27 23 20 19 20 20 21 21 21 20 22 22 22 23 23 18 17 18 18 19 19 8
38 39 41 41 42 40 39 40 42 42 38 35 31 26 24 23 25 28 27 28 28 28 27 25 23 22 22 21 21 21 21 21 23 23 23 23 23 21 20 24 22 18 17
41 41 41 38 36 35 34 36 35 31 39 36 33 31 29 25 25 30 30 26 27 27 27 27 24 23 23 22 22 21 21 21 21 23 24 25 24 22 21 24 27 26 23
44 43 42 39 36 31 30 31 27 19 26 31 30 30 29 27 26 28 31 32 30 26 26 26 26 24 24 23 23 23 23 22 22 22 22 25 25 24 22 24 29 31 31
43 43 42 40 37 32 32 27 23 20 17 18 22 22 22 25 26 27 27 28 29 33 32 26 24 24 25 25 25 24 24 23 22 22 21 22 23 23 22 24 28 34 36
42 41 41 40 38 35 30 33 31 24 22 22 23 23 22 23 24 24 24 25 27 28 27 27 28 29 27 27 26 25 24 24 23 22 21 22 23 23 22 24 28 33 39
42 42 41 39 38 36 35 33 33 34 28 21 20 18 23 27 25 25 23 24 25 27 29 26 24 24 23 24 24 24 23 22 22 21 20 20 21 22 21 24 26 30 36
44 44 43 42 41 39 37 35 34 34 33 34 24 21 24 28 30 28 25 24 24 24 25 26 23 23 22 19 20 21 21 21 21 21 20 19 20 21 21 26 29 30 34
45 45 46 44 41 39 36 34 34 35 36 34 33 34 27 26 27 29 29 27 27 26 26 28 25 23 23 23 23 22 21 21 21 21 21 19 19 20 22 24 30 32 35
47 47 45 44 42 39 36 34 31 32 35 36 37 36 39 38 37 36 33 32 31 31 30 30 29 28 26 25 24 23 22 21 21 21 21 21 19 18 21 21 29 34 37
49 49 48 47 45 41 36 34 31 29 31 32 34 38 39 40 42 44 44 41 38 35 34 34 34 32 31 29 26 25 24 22 22 22 22 22 20 18 18 18 25 35 40
50 50 49 46 42 39 35 32 30 27 25 25 26 29 33 37 39 39 38 41 45 44 43 41 40 37 35 34 31 29 28 26 24 23 24 23 22 19 17 17 19 31 39
49 48 47 44 41 38 33 30 27 24 22 22 23 24 24 26 30 32 33 34 35 35 35 39 42 43 41 38 37 34 31 29 26 25 25 24 23 20 17 16 16 22 33
48 46 45 43 41 37 33 30 26 23 22 22 22 24 25 26 25 25 26 27 30 32 33 33 34 39 46 48 44 40 34 30 27 26 25 24 23 20 18 16 15 19 25
Wind_Direction
304 310 313 307 304 306 306 307 309 308 304 300 289 277 271 280 287 286 293 298 297 297 299 303 303 305 305 305 301 293 297 289 276 272 283 276 287 271 242 245 243 236 230
301 312 309 304 302 303 304 305 306 307 303 298 289 284 283 280 283 287 293 295 295 296 298 302 304 304 305 303 302 300 288 286 285 284 282 284 276 276 254 248 248 230 233
301 307 305 301 300 301 302 303 303 301 301 299 293 285 280 279 286 288 292 295 293 294 295 300 303 306 308 305 300 301 296 285 284 282 285 287 273 269 263 241 244 239 231
297 301 299 297 298 299 298 298 299 300 301 299 294 285 283 284 287 289 292 290 288 290 292 296 300 306 311 312 309 299 297 291 282 278 290 287 255 246 259 250 252 257 229
296 298 300 299 298 298 296 295 296 296 295 292 290 289 284 282 286 290 289 285 284 285 287 290 295 302 309 312 314 308 296 299 292 295 300 297 268 251 270 250 232 250 233
297 304 307 307 304 302 299 295 293 291 289 288 289 288 287 286 282 283 282 283 283 283 285 286 290 298 305 310 315 314 308 297 300 293 325 308 293 244 266 250 224 230 223
300 303 306 308 303 303 303 300 296 296 292 288 285 285 285 282 280 278 279 281 282 282 283 283 286 292 300 305 312 311 311 304 298 293 329 329 298 269 258 243 232 225 227
295 299 301 301 298 296 296 298 300 295 296 291 285 281 281 280 279 277 277 278 279 280 281 280 280 282 290 297 307 311 311 304 304 300 298 320 338 296 291 249 221 222 227
298 298 298 297 297 297 288 294 296 295 290 290 290 283 279 278 277 277 277 278 279 279 279 278 280 283 286 293 300 308 316 312 303 300 287 289 311 336 316 270 221 205 220
291 291 289 284 285 287 291 291 290 284 286 286 282 281 276 275 276 276 277 277 277 275 276 280 281 286 293 296 301 307 315 318 314 300 302 298 290 314 315 331 241 198 214
284 290 286 283 287 289 289 287 278 280 282 279 280 274 270 268 272 273 274 275 275 273 274 276 281 286 291 295 299 302 308 318 323 319 306 293 294 287 297 315 332 222 212
288 290 289 293 292 293 289 288 276 273 267 270 273 271 273 266 266 269 272 273 273 274 272 274 278 284 288 293 297 300 304 311 321 319 316 304 295 289 280 282 303 295 187
299 298 294 290 292 291 286 288 278 291 264 261 268 270 278 271 264 265 268 271 272 273 273 272 275 281 285 287 292 298 301 306 313 316 319 314 306 291 273 263 253 289 241
323 321 316 311 300 292 291 284 285 287 270 253 266 269 275 273 268 264 267 269 269 271 274 275 276 277 280 284 288 293 298 300 305 314 316 314 310 302 272 252 246 233 255
325 325 327 326 316 300 294 298 279 267 264 260 261 266 268 270 262 260 258 267 269 269 271 273 274 276 278 280 283 289 293 298 302 307 312 315 309 302 280 251 240 233 228
322 321 324 325 327 304 306 296 307 300 268 263 273 271 268 263 265 269 265 255 256 264 269 270 272 272 274 276 279 281 285 292 298 302 309 316 313 302 280 259 237 228 222
321 319 318 318 316 318 295 304 294 281 279 274 278 284 277 269 269 266 267 266 264 261 258 266 274 275 275 277 277 278 282 286 293 300 305 313 308 291 276 260 241 228 221
321 320 318 315 311 307 306 291 292 295 277 265 264 268 269 267 267 263 261 264 264 263 264 266 269 272 273 272 273 273 277 280 287 294 301 308 304 291 278 256 240 229 224
323 321 319 315 313 310 303 293 289 280 282 285 273 257 245 250 259 257 257 261 261 263 262 260 262 264 263 263 265 269 273 278 283 292 297 306 300 292 278 255 242 231 227
326 323 321 317 313 309 302 293 283 280 276 267 268 254 237 247 257 261 258 255 257 260 262 259 260 265 266 267 270 271 273 279 284 291 294 303 299 298 287 251 235 227 227
328 326 323 321 319 315 309 298 285 274 269 268 259 253 256 257 256 258 261 260 257 256 257 261 263 264 270 272 270 273 276 281 286 291 296 297 301 299 292 258 229 226 221
330 329 328 325 323 319 314 308 295 280 270 264 262 257 251 253 258 264 265 261 258 258 259 260 262 263 263 268 270 271 273 278 284 290 296 298 298 296 297 271 234 226 221
334 332 330 327 324 320 314 309 303 290 277 269 263 261 260 257 256 257 259 262 264 264 264 262 262 263 266 265 267 270 271 274 281 288 295 298 294 294 297 276 246 226 220
337 335 333 331 328 323 316 310 304 294 283 279 274 269 266 264 262 259 258 257 259 261 264 265 264 263 261 264 264 265 267 272 276 282 289 295 295 290 290 279 254 230 220
340 338 337 335 333 329 323 315 305 298 291 283 279 277 275 271 266 261 257 256 257 259 258 258 260 261 262 261 264 261 261 263 268 273 280 289 292 288 287 282 258 238 223
343 342 342 341 337 334 328 322 311 299 292 289 284 278 275 273 270 266 261 258 258 258 258 258 258 259 261 261 259 258 256 257 260 266 272 281 287 287 281 277 260 244 228
Height
3058 3057 3054 3050 3046 3041 3037 3033 3029 3026 3022 3019 3017 3016 3014 3012 3009 3007 3004 3001 2998 2995 2992 2989 2986 2982 2979 2976 2972 2966 2960 2956 2950 2946 2947 2946 2946 2935 2940 2950 2956 2964 2980
3050 3047 3044 3040 3036 3033 3029 3024 3021 3018 3014 3011 3008 3006 3003 3002 3001 2999 2996 2994 2990 2986 2983 2980 2978 2974 2971 2967 2963 2958 2952 2948 2944 2937 2934 2933 2933 2930 2928 2936 2950 2955 2963
3041 3038 3035 3031 3027 3024 3020 3017 3013 3010 3006 3002 2999 2997 2996 2994 2991 2990 2988 2986 2981 2977 2975 2973 2970 2966 2963 2960 2957 2951 2945 2940 2936 2931 2925 2924 2924 2923 2924 2927 2940 2941 2947
3033 3030 3026 3022 3018 3014 3011 3008 3004 3000 2997 2994 2991 2989 2987 2985 2983 2982 2980 2977 2973 2970 2968 2965 2962 2959 2955 2952 2948 2944 2939 2934 2931 2925 2919 2917 2915 2918 2915 2912 2921 2930 2937
3023 3019 3016 3012 3007 3004 3001 2997 2994 2991 2988 2985 2983 2980 2977 2975 2974 2973 2971 2969 2965 2962 2960 2957 2956 2952 2949 2945 2941 2936 2932 2928 2923 2920 2911 2907 2907 2904 2907 2912 2914 2924 2929
3013 3009 3005 3000 2996 2992 2989 2985 2982 2980 2977 2974 2972 2969 2967 2965 2965 2963 2962 2960 2957 2955 2953 2950 2948 2946 2943 2940 2936 2930 2925 2921 2919 2915 2908 2904 2900 2902 2903 2904 2907 2917 2919
3004 2999 2995 2991 2986 2982 2978 2974 2972 2969 2966 2963 2960 2958 2957 2956 2955 2954 2953 2951 2949 2947 2944 2943 2941 2940 2938 2936 2932 2927 2922 2916 2913 2912 2906 2900 2898 2897 2897 2894 2896 2908 2909
2993 2989 2985 2980 2976 2972 2968 2966 2963 2960 2956 2953 2950 2948 2947 2946 2945 2945 2944 2942 2940 2938 2936 2935 2934 2932 2931 2929 2927 2923 2919 2913 2908 2906 2903 2900 2899 2898 2895 2891 2894 2894 2904
2982 2977 2973 2968 2964 2961 2956 2954 2951 2949 2946 2943 2940 2938 2937 2936 2936 2935 2935 2933 2932 2930 2929 2927 2927 2925 2924 2923 2920 2918 2915 2911 2907 2903 2901 2898 2896 2894 2893 2889 2890 2896 2900
2970 2965 2960 2955 2950 2946 2944 2940 2939 2935 2933 2931 2929 2927 2926 2926 2926 2926 2926 2924 2924 2922 2920 2920 2919 2918 2917 2915 2914 2911 2909 2907 2903 2900 2896 2893 2892 2891 2891 2890 2891 2891 2894
2955 2950 2945 2939 2932 2929 2927 2925 2923 2921 2920 2918 2917 2915 2914 2914 2915 2916 2916 2916 2915 2914 2913 2912 2911 2911 2910 2909 2908 2906 2903 2901 2898 2896 2895 2893 2890 2890 2891 2891 2888 2889 2893
2940 2935 2930 2924 2920 2916 2912 2909 2908 2906 2904 2904 2903 2903 2903 2903 2903 2905 2906 2906 2906 2906 2906 2905 2904 2903 2902 2901 2900 2899 2896 2895 2893 2891 2890 2888 2886 2886 2886 2887 2887 2888 2893
2926 2920 2913 2908 2903 2901 2897 2894 2892 2889 2889 2890 2890 2891 2893 2893 2893 2894 2895 2897 2897 2898 2898 2898 2898 2897 2896 2895 2893 2892 2891 2890 2889 2886 2883 2882 2882 2881 2884 2886 2889 2889 2891
2916 2909 2902 2895 2889 2886 2883 2880 2877 2877 2875 2876 2879 2880 2881 2883 2885 2885 2885 2887 2888 2889 2890 2890 2890 2891 2890 2889 2887 2886 2886 2884 2883 2883 2881 2879 2877 2877 2879 2882 2885 2889 2892
2907 2901 2894 2887 2880 2874 2872 2868 2864 2863 2864 2866 2867 2868 2870 2873 2875 2876 2877 2879 2880 2881 2881 2882 2883 2883 2883 2882 2882 2881 2880 2879 2878 2876 2875 2874 2872 2871 2874 2874 2877 2883 2886
2899 2892 2886 2880 2874 2868 2863 2859 2856 2853 2855 2857 2857 2859 2859 2861 2863 2865 2867 2869 2870 2872 2873 2874 2875 2875 2875 2876 2876 2875 2875 2874 2873 2872 2871 2868 2865 2864 2864 2866 2869 2874 2879
2892 2885 2879 2873 2868 2862 2858 2854 2850 2850 2848 2848 2850 2850 2851 2852 2853 2855 2857 2859 2860 2862 2863 2865 2866 2868 2868 2868 2868 2869 2869 2868 2867 2866 2865 2864 2863 2862 2861 2860 2862 2865 2871
2886 2879 2872 2866 2860 2855 2851 2847 2845 2843 2841 2841 2842 2843 2843 2844 2845 2846 2847 2849 2851 2853 2854 2856 2857 2859 2861 2861 2861 2862 2862 2862 2861 2860 2858 2856 2854 2852 2852 2853 2855 2858 2863
2878 2871 2865 2858 2852 2847 2843 2840 2836 2835 2836 2835 2835 2834 2835 2835 2837 2837 2838 2839 2843 2844 2845 2847 2849 2850 2852 2852 2853 2854 2854 2855 2854 2853 2852 2850 2846 2845 2842 2844 2846 2849 2855
2870 2862 2855 2848 2842 2837 2832 2828 2826 2825 2824 2826 2828 2828 2826 2827 2828 2829 2829 2830 2833 2836 2837 2838 2839 2841 2843 2844 2845 2846 2847 2847 2847 2846 2845 2844 2841 2839 2838 2840 2842 2845 2849
2861 2853 2845 2837 2830 2824 2819 2816 2813 2812 2812 2813 2815 2818 2818 2817 2818 2819 2821 2822 2824 2825 2828 2829 2831 2832 2834 2836 2837 2838 2839 2840 2839 2839 2839 2837 2836 2834 2832 2832 2836 2839 2843
2853 2844 2835 2827 2820 2814 2809 2804 2801 2799 2798 2799 2801 2803 2805 2806 2808 2809 2811 2812 2814 2815 2817 2820 2821 2823 2825 2827 2829 2830 2831 2832 2832 2832 2832 2831 2830 2828 2827 2825 2827 2831 2836
2844 2835 2826 2818 2810 2803 2798 2793 2790 2787 2785 2785 2786 2788 2790 2792 2794 2797 2799 2801 2803 2806 2807 2808 2811 2814 2816 2818 2820 2821 2823 2824 2825 2826 2826 2825 2824 2822 2821 2820 2820 2824 2829
2837 2827 2817 2808 2800 2793 2787 2783 2779 2777 2775 2775 2775 2775 2776 2777 2779 2782 2785 2787 2789 2793 2795 2797 2798 2802 2806 2808 2811 2813 2815 2817 2818 2819 2819 2819 2819 2817 2816 2815 2815 2817 2821
2831 2821 2810 2801 2792 2784 2778 2774 2770 2768 2767 2766 2766 2765 2766 2766 2766 2769 2771 2774 2776 2779 2782 2784 2787 2789 2793 2797 2801 2804 2807 2809 2810 2812 2813 2813 2813 2812 2811 2811 2811 2812 2815
2827 2816 2805 2795 2786 2778 2771 2766 2762 2760 2759 2758 2757 2757 2757 2757 2757 2758 2759 2761 2764 2766 2769 2772 2774 2777 2779 2784 2790 2793 2797 2800 2802 2804 2805 2806 2807 2806 2806 2806 2806 2807 2810